Miscellaneous Local Product
Issued by NWS Hastings, NE

Home | Current Version | Previous Version | Graphics & Text | Print | Product List | Glossary On
Versions: 1 2 3 4 5 6 7 8 9 10 11 12 13 14 15 16 17 18 19 20 21 22 23 24 25 26 27 28 29 30 31 32 33 34 35 36 37 38 39 40 41 42 43 44 45 46 47 48 49 50
000
AXUS43 KGID 201602
MISGRI

GID CWA HOURLY WEATHER ROUNDUP
NATIONAL WEATHER SERVICE HASTINGS NE
1000 AM CST SAT DEC 20 2014

NOTE: "FAIR" INDICATES FEW OR NO CLOUDS BELOW 12,000 FEET WITH NO
SIGNIFICANT WEATHER AND/OR OBSTRUCTIONS TO VISIBILITY.

...SOUTH CENTRAL NEBRASKA...

CITY           SKY/WX    TMP DP  RH WIND       PRES   REMARKS
GRAND ISLAND   FOG       28  28 100 S5        30.08S VSB<1/4 WCI  23
HASTINGS       HAZE      30  24  78 CALM      30.06S VSB 1/2
KEARNEY        SUNNY     23  21  93 CALM      30.05S
ORD            NOT AVBL
YORK           FOG       30  30 100 CALM      30.09R VSB<1/4
AURORA         FOG       30  30 100 CALM      30.07S VSB<1/4
LEXINGTON      SUNNY     26  24  91 NW5       30.04R FOG     WCI  20
HOLDREGE       SUNNY     27  24  87 CALM      30.04S
HEBRON         FOG       27  26  94 CALM      30.11R VSB<1/4

...NEBRASKA PANHANDLE...

CITY           SKY/WX    TMP DP  RH WIND       PRES   REMARKS
CHADRON        CLOUDY    33  25  72 SW8       29.95R WCI  26
ALLIANCE       CLOUDY    19  15  84 W7        29.96R WCI  10
SCOTTSBLUFF    CLOUDY    22  18  85 CALM      29.99R
SIDNEY         CLOUDY    33  22  63 W12       30.00R WCI  24

...WESTERN AND NORTH CENTRAL NEBRASKA...

CITY           SKY/WX    TMP DP  RH WIND       PRES   REMARKS
VALENTINE      MOSUNNY   20  18  92 SW5       29.96R WCI  13
AINSWORTH      MOSUNNY   25  19  77 SW3       29.96S
ONEILL         SUNNY    N/A N/A N/A CALM      30.02R
BROKEN BOW     SUNNY     28  23  81 CALM      30.01R
IMPERIAL       MOSUNNY   27  19  72 W5        30.02R WCI  22
NORTH PLATTE   SUNNY     25  21  85 W8        30.02R FOG     WCI  16
MCCOOK         SUNNY     28  24  85 SW5       30.04S WCI  23

...EASTERN NEBRASKA...

CITY           SKY/WX    TMP DP  RH WIND       PRES   REMARKS
NORFOLK        CLOUDY    32  30  92 S7        30.07S FOG     WCI  26
SO SIOUX CITY  CLOUDY    33  30  88 S6        30.13R FOG     WCI  28
TEKAMAH        CLOUDY    33  32  96 SE6       30.13R FOG     WCI  28
COLUMBUS       CLOUDY    32  27  80 S6        30.11R WCI  26
ALBION         FOG       30  29  94 S7        30.06S VSB 1/4 WCI  23
OMAHA EPPLEY   CLOUDY    33  32  96 S7        30.14R FOG     WCI  27
OFFUTT AFB     CLOUDY    33  32  96 SE5       30.12S FOG     WCI  28
MILLARD        CLOUDY    33  32  96 SE5       30.13R FOG     WCI  28
LINCOLN        CLOUDY    32  31  96 SW3       30.13R FOG
NEBRASKA CITY  CLOUDY    32  32 100 SW6       30.12R FOG     WCI  27
BEATRICE       FOG       32  32 100 W6        30.11R VSB 1   WCI  26
FALLS CITY     CLOUDY    33  29  85 S7        30.14R WCI  27

...NORTHERN KANSAS...

CITY           SKY/WX    TMP DP  RH WIND       PRES   REMARKS
GOODLAND       MOSUNNY   38  29  70 W7        30.03R WCI  33
HILL CITY      SUNNY     33  28  81 SW3       30.07S
NORTON         SUNNY     34  27  75 W5        30.05R WCI  30
PHILLIPSBURG   SUNNY     36  32  87 CALM      30.08S
SMITH CENTER   SUNNY     28  27  93 CALM      30.09R
BELOIT         SUNNY     32  30  93 CALM      30.10R
HAYS           SUNNY     36  27  69 W6        30.08S WCI  31
RUSSELL        SUNNY     33  32  96 SW10      30.08R WCI  25
CONCORDIA      SUNNY     32  31  96 SW7       30.10R FOG     WCI  26
SALINA         MOSUNNY   36  34  92 S6        30.13S FOG     WCI  31
TOPEKA         SUNNY     39  33  79 SW12      30.16S WCI  32



USA.gov is the U.S. government's official web portal to all federal, state and local government web resources and services.